Date String (YYYY-MM-DD hh:mm:ss) UTC,Instrument flags,absolute air pressure of the measurement (hPa),sample flow rate (lpm),inlet stack bypass flow (lpm),air temperature of the measurement (°C),ambient temperature measured by the external sensor (°C),aerosol sample conditioner tube jacket temperature (°C),OPC LED temperature (°C),internal box temperature (°C),relative humidity of the measurement (%),span deviation,mass concentration of particles derived from Lorenz-Mie calculation of OPC scattering (μg/m³),mass concentration of particles derived from Lorenz-Mie calculation of OPC scattering (μg/m³),mass concentration of particles derived from Lorenz-Mie calculation of OPC scattering (μg/m³)
DateTimeUTC,F1_M11,P_M11,Q1_M11,Q2_M11,T1_M11,T2_M11,T3_M11,T4_M11,T5_M11,U1_M11,ZSPAN_M11,X0_M11,X2_M11,X1_M11
2024-01-13 02:00:00,SystemResetWarning,0813.2,5.00,000.00,018.7,017.3,000.0,027.3,020.0,11.0,0000.0,0002.13,0000.81,0000.49
2024-01-13 02:01:00,SystemResetWarning,0813.2,5.01,000.00,018.7,017.2,000.0,027.3,020.0,11.0,0000.0,0002.06,0000.81,0000.50
2024-01-13 02:02:00,SystemResetWarning,0813.2,5.00,000.00,018.7,017.2,000.0,027.3,020.0,11.0,0000.0,0002.06,0000.82,0000.49
2024-01-13 02:03:00,SystemResetWarning,0813.2,5.00,000.00,018.7,017.2,000.0,027.3,020.1,11.0,0000.0,0001.94,0000.80,0000.47
2024-01-13 02:04:00,SystemResetWarning,0813.2,5.01,000.00,018.8,017.8,000.0,027.2,020.5,11.1,0000.0,0001.48,0000.75,0000.47
2024-01-13 02:05:00,SystemResetWarning,0813.3,5.00,000.00,018.9,018.7,000.0,027.2,020.8,11.0,0000.0,0001.89,0000.72,0000.46
2024-01-13 02:06:00,SystemResetWarning,0813.3,4.98,000.00,018.9,018.8,000.0,027.2,020.5,10.9,0000.0,0002.40,0000.72,0000.47
2024-01-13 02:07:00,SystemResetWarning,0813.2,5.00,000.00,018.9,018.6,000.0,027.2,020.1,11.0,0000.0,0002.44,0000.74,0000.47
2024-01-13 02:08:00,SystemResetWarning,0813.2,5.00,000.00,018.9,018.4,000.0,027.2,020.0,11.0,0000.0,0002.69,0000.78,0000.47
2024-01-13 02:09:00,SystemResetWarning,0813.2,5.01,000.00,018.8,018.2,000.0,027.2,020.0,11.0,0000.0,0003.29,0000.81,0000.48
2024-01-13 02:10:00,SystemResetWarning,0813.3,5.00,000.00,018.8,018.0,000.0,027.3,020.0,11.0,0000.0,0003.37,0000.84,0000.49
2024-01-13 02:11:00,SystemResetWarning,0813.3,5.00,000.00,018.8,017.8,000.0,027.3,020.0,11.1,0000.0,0003.51,0000.88,0000.49
2024-01-13 02:12:00,SystemResetWarning,0813.3,5.00,000.00,018.8,017.7,000.0,027.3,020.0,11.1,0000.0,0003.51,0000.87,0000.49
2024-01-13 02:13:00,SystemResetWarning,0813.4,5.00,000.00,018.8,017.6,000.0,027.3,020.0,11.2,0000.0,0003.58,0000.90,0000.49
2024-01-13 02:14:00,SystemResetWarning,0813.4,5.01,000.00,018.7,017.5,000.0,027.3,020.0,11.2,0000.0,0003.63,0000.90,0000.50
2024-01-13 02:15:00,SystemResetWarning,0813.5,5.02,000.00,018.7,017.4,000.0,027.3,020.0,11.3,0000.0,0003.62,0000.90,0000.50
2024-01-13 02:16:00,SystemResetWarning,0813.9,5.00,000.00,018.7,017.4,000.0,027.3,020.0,11.3,0000.0,0003.18,0000.94,0000.51
2024-01-13 02:17:00,SystemResetWarning,0813.9,4.99,000.00,018.7,017.4,000.0,027.3,020.0,10.6,0000.0,0002.69,0001.00,0000.52
2024-01-13 02:18:00,SystemResetWarning,0814.0,5.00,000.00,018.7,017.4,000.0,027.3,020.0,8.6,0000.0,0003.11,0000.99,0000.52
2024-01-13 02:19:00,SystemResetWarning,0814.1,5.00,000.00,018.7,017.4,000.0,027.3,020.0,8.0,0000.0,0003.24,0001.00,0000.51
2024-01-13 02:20:00,SystemResetWarning,0814.2,5.01,000.00,018.7,017.4,000.0,027.3,020.1,7.7,0000.0,0002.77,0001.04,0000.52
2024-01-13 02:21:00,SystemResetWarning,0814.3,5.01,000.00,018.8,017.9,000.0,027.2,020.4,7.6,0000.0,0002.73,0001.03,0000.52
2024-01-13 02:22:00,SystemResetWarning,0814.4,4.99,000.00,018.9,018.7,000.0,027.2,020.8,7.4,0000.0,0002.72,0001.01,0000.53
2024-01-13 02:23:00,SystemResetWarning,0814.4,5.00,000.00,019.0,019.3,000.0,027.2,020.9,7.3,0000.0,0003.40,0001.01,0000.54
2024-01-13 02:24:00,SystemResetWarning,0814.4,4.99,000.00,019.1,019.2,000.0,027.2,020.5,7.2,0000.0,0003.59,0000.98,0000.54
2024-01-13 02:25:00,SystemResetWarning,0814.3,5.00,000.00,019.0,018.9,000.0,027.2,020.1,7.2,0000.0,0003.44,0000.94,0000.55
2024-01-13 02:26:00,SystemResetWarning,0814.4,5.00,000.00,018.9,018.6,000.0,027.3,020.0,7.2,0000.0,0003.52,0000.97,0000.55
2024-01-13 02:27:00,SystemResetWarning,0814.3,5.00,000.00,018.9,018.4,000.0,027.3,020.0,7.2,0000.0,0003.49,0000.96,0000.56
2024-01-13 02:28:00,SystemResetWarning,0814.5,5.00,000.00,018.9,018.2,000.0,027.3,020.1,7.2,0000.0,0003.62,0000.96,0000.57
2024-01-13 02:29:00,SystemResetWarning,0814.5,5.00,000.00,018.9,018.5,000.0,027.3,020.5,7.2,0000.0,0003.48,0001.00,0000.58
2024-01-13 02:30:00,SystemResetWarning,0814.7,5.01,000.00,019.1,019.1,000.0,027.3,021.0,7.1,0000.0,0003.33,0001.03,0000.61
2024-01-13 02:31:00,SystemResetWarning,0814.7,4.99,000.00,019.2,019.6,000.0,027.3,021.1,7.1,0000.0,0003.23,0001.01,0000.62
2024-01-13 02:32:00,SystemResetWarning,0814.7,4.99,000.00,019.2,019.4,000.0,027.3,020.6,7.1,0000.0,0003.26,0001.02,0000.62
2024-01-13 02:33:00,SystemResetWarning,0814.8,5.00,000.00,019.1,019.0,000.0,027.3,020.1,7.1,0000.0,0003.34,0001.04,0000.62
2024-01-13 02:34:00,SystemResetWarning,0814.8,5.00,000.00,019.0,018.7,000.0,027.3,020.0,7.1,0000.0,0003.80,0001.53,0000.89
2024-01-13 02:35:00,SystemResetWarning,0814.9,5.00,000.00,019.0,018.5,000.0,027.4,020.1,7.1,0000.0,0006.48,0002.37,0001.42
2024-01-13 02:36:00,SystemResetWarning,0814.8,5.01,000.00,019.1,018.8,000.0,027.4,020.7,7.1,0000.0,0009.21,0003.18,0001.95
2024-01-13 02:37:00,SystemResetWarning,0814.9,5.00,000.00,019.2,019.5,000.0,027.4,021.1,7.0,0000.0,0012.39,0003.66,0002.46
2024-01-13 02:38:00,SystemResetWarning,0814.8,4.99,000.00,019.3,019.9,000.0,027.4,021.2,7.0,0000.0,0015.86,0004.08,0002.95
2024-01-13 02:39:00,SystemResetWarning,0814.7,4.99,000.00,019.3,019.6,000.0,027.4,020.7,6.9,0000.0,0017.78,0004.46,0003.29
2024-01-13 02:40:00,SystemResetWarning,0814.8,5.00,000.00,019.3,019.2,000.0,027.4,020.2,6.9,0000.0,0018.60,0004.78,0003.52
2024-01-13 02:41:00,SystemResetWarning,0814.8,5.00,000.00,019.2,018.9,000.0,027.4,020.0,6.9,0002.8,0019.72,0005.11,0003.77
2024-01-13 02:42:00,SystemResetWarning,0814.8,5.01,000.00,019.2,018.9,000.0,027.4,020.5,6.9,0003.1,0021.53,0005.51,0004.05
2024-01-13 02:43:00,SystemResetWarning,0814.9,5.01,000.00,019.3,019.4,000.0,027.5,021.1,6.9,0003.3,0023.75,0005.93,0004.32
2024-01-13 02:44:00,SystemResetWarning,0815.0,5.00,000.00,019.4,019.8,000.0,027.5,021.2,6.8,0002.8,0025.27,0006.33,0004.61
2024-01-13 02:45:00,SystemResetWarning,0815.0,4.98,000.00,019.4,019.5,000.0,027.5,020.7,6.8,0002.7,0027.45,0006.56,0004.80
2024-01-13 02:46:00,SystemResetWarning,0815.0,5.00,000.00,019.3,019.2,000.0,027.5,020.3,6.8,0001.9,0027.63,0006.51,0004.80
2024-01-13 02:47:00,SystemResetWarning,0815.0,5.00,000.00,019.3,018.8,000.0,027.5,020.0,6.8,0001.8,0027.12,0006.47,0004.79
2024-01-13 02:48:00,SystemResetWarning,0815.1,5.01,000.00,019.2,018.6,000.0,027.5,020.2,6.8,0002.4,0025.47,0006.40,0004.80
2024-01-13 02:49:00,SystemResetWarning,0815.2,5.01,000.00,019.3,019.0,000.0,027.5,020.8,6.8,0001.6,0023.10,0006.34,0004.79
2024-01-13 02:50:00,SystemResetWarning,0815.3,4.99,000.00,019.4,019.7,000.0,027.6,021.3,6.7,0001.2,0021.27,0006.29,0004.80
2024-01-13 02:51:00,SystemResetWarning,0815.3,5.00,000.00,019.5,020.0,000.0,027.6,021.3,6.6,0000.8,0020.90,0006.26,0004.81
2024-01-13 02:52:00,SystemResetWarning,0815.3,4.99,000.00,019.5,019.7,000.0,027.6,020.7,6.6,0001.0,0020.87,0006.21,0004.82
2024-01-13 02:53:00,SystemResetWarning,0815.3,5.00,000.00,019.4,019.3,000.0,027.6,020.3,6.7,0001.1,0020.55,0006.16,0004.82
2024-01-13 02:54:00,SystemResetWarning,0815.5,5.00,000.00,019.3,019.0,000.0,027.6,020.1,6.7,0000.9,0019.80,0006.11,0004.84
2024-01-13 02:55:00,SystemResetWarning,0815.6,5.00,000.00,019.3,018.7,000.0,027.6,020.0,6.7,0001.5,0019.39,0006.07,0004.83
2024-01-13 02:56:00,SystemResetWarning,0815.6,5.00,000.00,019.2,018.6,000.0,027.6,020.2,6.8,0002.3,0017.28,0006.04,0004.84
2024-01-13 02:57:00,SystemResetWarning,0815.7,5.01,000.00,019.3,019.0,000.0,027.6,020.8,6.7,0000.3,0016.20,0006.04,0004.86
2024-01-13 02:58:00,SystemResetWarning,0815.9,5.00,000.00,019.4,019.6,000.0,027.6,021.2,6.7,0000.1,0015.69,0006.02,0004.89
2024-01-13 02:59:00,SystemResetWarning,0815.9,4.99,000.00,019.5,019.5,000.0,027.6,020.8,6.7,0002.0,0014.68,0005.99,0004.91
